Home   Weather   Belo Horizonte   Past weeks

Flag for Brazil Past Weather in Belo Horizonte, Minas Gerais, Brazil — Yesterday and Last 2 Weeks

Now
66 °F

Clear.


Feels Like: 66 °F
Forecast: 65 / 73 °F
Wind: 5 mph from Southeast

Location: Belo Horizonte Airport

Current Time: Feb 26, 2017 at 2:56:11 am

Latest Report: Feb 26, 2017 at 2:00 am


Visibility: 10 mi

Pressure: 30.01 "Hg (27.14 "Hg at 860m altitude)

Humidity: 88%

Dew Point: 63 °F

Location of Belo HorizonteLocation

Past Weather in Belo Horizonte — Graph

°F

Belo Horizonte Temperature Yesterday

Maximum temperature yesterday: 84 °F (at 3:00 pm)
Minimum temperature yesterday: 66 °F (at 6:00 am)
Average temperature yesterday: 73 °F

High & Low Weather Summary for the Past Weeks

 TemperatureHumidityPressure
High86 °F (Feb 18, 4:00 pm)94% (Feb 14, 5:00 am)30.27 "Hg (Feb 14, 5:00 am)
Low63 °F (Feb 17, 6:00 am)35% (Feb 24, 5:00 pm)29.92 "Hg (Feb 12, 7:00 pm)
Average74 °F65%30.10 "Hg
* Reported Feb 11 2:00 am — Feb 26 1:00 am, Belo Horizonte, Weather by CustomWeather, © 2017

Note: Actual official high and low records may vary slightly from our data, if they occured in-between our weather recording intervals... More about our weather records

Advertising

Belo Horizonte Weather History for the Previous 24 Hours

Scroll right to see more
 ConditionsComfort  
Time TempWeatherWind HumidityBarometerVisibility
1:00 am
Sun, Feb 26
66 °FClear.2 mph88%30.04 "Hg10 mi
12:00 am66 °FClear.3 mph88%30.07 "Hg10 mi
11:00 pm
Sat, Feb 25
66 °FClear.6 mph88%30.07 "Hg10 mi
10:00 pm68 °FClear.3 mph83%30.07 "Hg10 mi
9:00 pm68 °FPassing clouds.3 mph78%30.07 "HgN/A
8:00 pm68 °FPassing clouds.8 mph83%30.04 "HgN/A
7:00 pm70 °FPassing clouds.8 mph78%30.01 "HgN/A
6:00 pm70 °FThunderstorms. Broken clouds.10 mph78%30.01 "HgN/A
5:00 pm73 °FThunderstorms. Scattered clouds.15 mph65%29.98 "Hg4 mi
4:00 pm81 °FScattered showers. Scattered clouds.3 mph54%N/AN/A
3:00 pm84 °FScattered showers. Partly sunny.6 mph45%29.95 "HgN/A
2:00 pm82 °FPartly sunny.3 mph48%29.98 "HgN/A
1:00 pm82 °FPartly sunny.6 mph45%30.01 "HgN/A
12:00 pm81 °FScattered clouds.6 mph51%30.04 "HgN/A
11:00 am81 °FScattered clouds.5 mph51%30.07 "HgN/A
10:00 am77 °FPassing clouds.6 mph61%30.07 "HgN/A
9:00 am73 °FPassing clouds.7 mph69%30.07 "HgN/A
8:00 am72 °FPassing clouds.2 mph78%30.07 "HgN/A
7:00 am68 °FSunny.No wind83%30.04 "Hg10 mi
6:00 am66 °FSunny.2 mph88%30.01 "Hg10 mi
4:00 am68 °FClear.6 mph83%29.98 "Hg10 mi
3:00 am68 °FClear.7 mph83%29.98 "Hg10 mi
2:00 am70 °FClear.2 mph78%30.01 "Hg10 mi
Weather by CustomWeather, © 2017

See weather overviewHow to use our weather pages